Simultaneous Nadir Overpasses (SNOs) Predictions

Prediction of SNOs between AQUA and GOES-15 Satellite Orbit:

Table of predicted SNOs for the next 14.0 days since TLE Epoch: 2/17/2024
Index Date Time (AQUA) AQUA Lat,Lon GOES-15 Lat,Lon Distance(km) Time Diff (sec)
1 02/17/2024 21:50:51 -0.30, 62.83 0.01, 61.36 167.17 80
2 02/18/2024 10:11:22 -0.77, 57.87 -0.01, 61.46 408.04 80
3 02/20/2024 09:55:44 0.05, 61.69 -0.01, 61.44 28.14 80
4 02/22/2024 09:40:05 0.86, 65.51 -0.01, 61.43 464.61 80
5 02/22/2024 22:00:27 0.16, 60.58 0.02, 61.32 84.39 80
6 02/24/2024 21:44:47 -0.66, 64.41 0.01, 61.31 352.50 80
7 02/25/2024 10:05:17 -0.42, 59.45 -0.02, 61.41 222.51 80
8 02/27/2024 09:49:36 0.42, 63.28 -0.01, 61.40 214.73 80
9 02/27/2024 22:09:57 0.63, 58.35 0.02, 61.29 334.06 80
10 02/29/2024 21:54:14 -0.16, 62.20 0.01, 61.29 103.04 80
11 03/01/2024 10:14:43 -0.88, 57.23 -0.02, 61.39 472.05 80
